This is the latest recevied weather packets stored in our database for station/object K5RNB. If no packets are shown the sender has not sent any weather packets the latest 10 day(s).
| Time | Temp. | Humidity | Pressure | Rain* | Wind** | Luminosity | Snow |
|---|---|---|---|---|---|---|---|
| 1777322690 | 33.33° C | 41% | 1005.9 hPa | 0 mm | - | - | - |
| 1777321791 | 32.78° C | 45% | 1005.9 hPa | 0 mm | - | - | - |
| 1777321491 | 32.78° C | 45% | 1006 hPa | 0 mm | - | - | - |
| 1777320591 | 32.78° C | 49% | 1006 hPa | 0 mm | - | - | - |
| 1777319992 | 32.22° C | 44% | 1006 hPa | 0 mm | - | - | - |
| 1777319090 | 32.78° C | 48% | 1006.1 hPa | 0 mm | - | - | - |
| 1777315192 | 31.11° C | 53% | 1006.2 hPa | 0 mm | - | - | - |
| 1777313092 | 30.56° C | 61% | 1006.2 hPa | 0 mm | - | - | - |
| 1777311592 | 30.56° C | 63% | 1006.2 hPa | 0 mm | - | - | - |
| 1777309492 | 29.44° C | 72% | 1006.4 hPa | 0 mm | - | - | - |
| 1777309191 | 29.44° C | 72% | 1006.4 hPa | 0 mm | - | - | - |
| 1777305292 | 27.78° C | 77% | 1006.1 hPa | 0 mm | - | - | - |
| 1777304992 | 27.78° C | 78% | 1006.2 hPa | 0 mm | - | - | - |
| 1777301093 | 25.56° C | 82% | 1005.5 hPa | 0 mm | - | - | - |
| 1777300193 | 25.56° C | 82% | 1005.4 hPa | 0 mm | - | - | - |
| 1777298692 | 25° C | 83% | 1005.4 hPa | 0 mm | - | - | - |
| 1777297193 | 24.44° C | 84% | 1005.4 hPa | 0 mm | - | - | - |
| 1777295394 | 23.89° C | 85% | 1005 hPa | 0 mm | - | - | - |
| 1777293893 | 23.89° C | 85% | 1004.6 hPa | 0 mm | - | - | - |
| 1777292994 | 23.33° C | 85% | 1004.3 hPa | 0 mm | - | - | - |
| 1777291193 | 23.89° C | 85% | 1004.3 hPa | 0 mm | - | - | - |
| 1777290893 | 23.89° C | 85% | 1004.1 hPa | 0 mm | - | - | - |
| 1777289693 | 23.89° C | 85% | 1004 hPa | 0 mm | - | - | - |
| 1777283695 | 23.89° C | 85% | 1003.1 hPa | 0 mm | - | - | - |
| 1777282195 | 23.89° C | 85% | 1003.1 hPa | 0 mm | - | - | - |
* Rain latest hour (hover to see other rain measurements)
** Current wind speed in m/s (hover to see current wind gust speed)